Hourly Weather Erandio

Today, 6 August, Thursday

Time Temperature Precipitation Wind Pressure Humidity
00:00 +20°C° 0 mm 1 mps 760 mmHg 80%
01:00 +20°C° 0 mm 1 mps 760 mmHg 77%
02:00 +20°C° 0 mm 1 mps 760 mmHg 73%
03:00 +20°C° 0 mm 1 mps 760 mmHg 70%
04:00 +20°C° 0 mm 1 mps 760 mmHg 66%
05:00 +21°C° 0 mm 1 mps 760 mmHg 62%
06:00 +20°C° 0 mm 2 mps 760 mmHg 57%
07:00 +24°C° 0 mm 2 mps 760 mmHg 50%
08:00 +28°C° 0 mm 2 mps 760 mmHg 42%
09:00 +31°C° 0 mm 2 mps 760 mmHg 35%
10:00 +35°C° 0 mm 2 mps 760 mmHg 32%
11:00 +37°C° 0 mm 3 mps 759 mmHg 28%
12:00 +40°C° 0 mm 3 mps 759 mmHg 25%
13:00 +40°C° 0 mm 3 mps 759 mmHg 26%
14:00 +40°C° 0 mm 3 mps 759 mmHg 27%
15:00 +39°C° 0 mm 3 mps 758 mmHg 28%
16:00 +38°C° 0 mm 3 mps 758 mmHg 33%
17:00 +36°C° 0 mm 3 mps 758 mmHg 39%
18:00 +34°C° 0 mm 2 mps 758 mmHg 44%
19:00 +31°C° 0 mm 2 mps 758 mmHg 50%
20:00 +29°C° 0 mm 2 mps 758 mmHg 55%
21:00 +27°C° 0 mm 1 mps 759 mmHg 60%
22:00 +27°C° 0 mm 1 mps 759 mmHg 59%
23:00 +27°C° 0 mm 1 mps 759 mmHg 57%

Tomorrow, 7 August, Friday

Time Temperature Precipitation Wind Pressure Humidity
00:00 +28°C° 0 mm 1 mps 759 mmHg 56%
01:00 +27°C° 0 mm 1 mps 759 mmHg 56%
02:00 +27°C° 0 mm 2 mps 759 mmHg 55%
03:00 +27°C° 0 mm 2 mps 759 mmHg 55%
04:00 +26°C° 0 mm 2 mps 759 mmHg 58%
05:00 +26°C° 0 mm 2 mps 759 mmHg 61%
06:00 +26°C° 0 mm 3 mps 759 mmHg 63%
07:00 +28°C° 0 mm 2 mps 759 mmHg 56%
08:00 +31°C° 0 mm 2 mps 759 mmHg 48%
09:00 +35°C° 0 mm 2 mps 759 mmHg 41%
10:00 +37°C° 0 mm 2 mps 759 mmHg 38%
11:00 +39°C° 0 mm 3 mps 759 mmHg 34%
12:00 +40°C° 0 mm 3 mps 759 mmHg 31%
13:00 +38°C° 0 mm 3 mps 759 mmHg 39%
14:00 +36°C° 0 mm 4 mps 759 mmHg 46%
15:00 +33°C° 0 mm 4 mps 759 mmHg 53%
16:00 +30°C° 0.4 mm 4 mps 759 mmHg 62%
17:00 +28°C° 0.4 mm 4 mps 760 mmHg 71%
18:00 +27°C° 0.4 mm 3 mps 760 mmHg 80%
19:00 +26°C° 0.1 mm 3 mps 761 mmHg 83%
20:00 +25°C° 0.1 mm 3 mps 762 mmHg 85%
21:00 +23°C° 0.1 mm 4 mps 763 mmHg 88%
22:00 +23°C° 0 mm 4 mps 763 mmHg 89%
23:00 +23°C° 0 mm 4 mps 763 mmHg 89%

Day after tomorrow, 8 August, Saturday

Time Temperature Precipitation Wind Pressure Humidity
00:00 +22°C° 0 mm 3 mps 763 mmHg 90%
01:00 +22°C° 0 mm 3 mps 763 mmHg 91%
02:00 +21°C° 0 mm 3 mps 763 mmHg 92%
03:00 +21°C° 0 mm 3 mps 762 mmHg 94%
04:00 +21°C° 0 mm 3 mps 763 mmHg 93%
05:00 +21°C° 0 mm 3 mps 763 mmHg 92%
06:00 +21°C° 0 mm 2 mps 763 mmHg 91%
07:00 +24°C° 0 mm 3 mps 763 mmHg 79%
08:00 +26°C° 0 mm 3 mps 763 mmHg 67%
09:00 +29°C° 0 mm 3 mps 763 mmHg 54%
10:00 +29°C° 0 mm 3 mps 763 mmHg 53%
11:00 +30°C° 0 mm 3 mps 763 mmHg 51%
12:00 +32°C° 0 mm 4 mps 763 mmHg 49%
13:00 +30°C° 0 mm 4 mps 762 mmHg 52%
14:00 +30°C° 0 mm 4 mps 762 mmHg 54%
15:00 +30°C° 0 mm 4 mps 761 mmHg 57%
16:00 +28°C° 0 mm 4 mps 762 mmHg 62%
17:00 +27°C° 0 mm 3 mps 762 mmHg 67%
18:00 +26°C° 0 mm 3 mps 762 mmHg 73%
19:00 +25°C° 0 mm 2 mps 762 mmHg 79%
20:00 +23°C° 0 mm 2 mps 763 mmHg 86%
21:00 +21°C° 0 mm 2 mps 763 mmHg 93%
22:00 +21°C° 0 mm 2 mps 763 mmHg 92%
23:00 +21°C° 0 mm 2 mps 763 mmHg 92%

9 August, Sunday

Time Temperature Precipitation Wind Pressure Humidity
00:00 +21°C° 0 mm 2 mps 763 mmHg 91%
01:00 +21°C° 0 mm 2 mps 762 mmHg 92%
02:00 +21°C° 0 mm 2 mps 762 mmHg 92%
03:00 +21°C° 0 mm 2 mps 762 mmHg 92%
04:00 +22°C° 0.1 mm 1 mps 762 mmHg 92%
05:00 +22°C° 0.1 mm 1 mps 762 mmHg 91%
06:00 +22°C° 0.1 mm 1 mps 762 mmHg 90%
07:00 +23°C° 0 mm 1 mps 762 mmHg 86%
08:00 +24°C° 0 mm 1 mps 762 mmHg 83%
09:00 +24°C° 0 mm 1 mps 762 mmHg 79%
10:00 +26°C° 0 mm 1 mps 761 mmHg 74%
11:00 +27°C° 0 mm 2 mps 761 mmHg 69%
12:00 +28°C° 0 mm 2 mps 761 mmHg 64%
13:00 +28°C° 0 mm 2 mps 761 mmHg 65%
14:00 +28°C° 0 mm 2 mps 760 mmHg 65%
15:00 +28°C° 0 mm 3 mps 760 mmHg 65%
16:00 +27°C° 0 mm 2 mps 760 mmHg 69%
17:00 +26°C° 0 mm 2 mps 760 mmHg 73%
18:00 +25°C° 0 mm 2 mps 760 mmHg 77%
19:00 +24°C° 0.1 mm 2 mps 760 mmHg 81%
20:00 +23°C° 0.1 mm 1 mps 760 mmHg 85%
21:00 +23°C° 0.1 mm 1 mps 761 mmHg 89%
22:00 +23°C° 0.2 mm 1 mps 761 mmHg 90%
23:00 +22°C° 0.2 mm 1 mps 761 mmHg 91%

10 August, Monday

Time Temperature Precipitation Wind Pressure Humidity
00:00 +22°C° 0.2 mm 1 mps 761 mmHg 92%
01:00 +22°C° 0.1 mm 1 mps 761 mmHg 92%
02:00 +22°C° 0.1 mm 1 mps 760 mmHg 92%
03:00 +22°C° 0.1 mm 1 mps 760 mmHg 92%
04:00 +22°C° 0.1 mm 1 mps 760 mmHg 93%
05:00 +22°C° 0.1 mm 1 mps 760 mmHg 93%
06:00 +22°C° 0.1 mm 1 mps 760 mmHg 93%
07:00 +23°C° 0 mm 1 mps 760 mmHg 91%
08:00 +24°C° 0 mm 1 mps 760 mmHg 88%
09:00 +24°C° 0 mm 1 mps 760 mmHg 85%
10:00 +25°C° 0 mm 1 mps 760 mmHg 81%
11:00 +26°C° 0 mm 2 mps 759 mmHg 77%
12:00 +27°C° 0 mm 2 mps 759 mmHg 73%
13:00 +27°C° 0 mm 2 mps 759 mmHg 71%
14:00 +27°C° 0 mm 2 mps 759 mmHg 70%
15:00 +28°C° 0 mm 3 mps 758 mmHg 69%
16:00 +26°C° 0 mm 3 mps 758 mmHg 73%
17:00 +25°C° 0 mm 3 mps 758 mmHg 77%
18:00 +24°C° 0 mm 3 mps 759 mmHg 82%
19:00 +24°C° 0 mm 3 mps 759 mmHg 85%
20:00 +23°C° 0 mm 2 mps 760 mmHg 88%
21:00 +21°C° 0 mm 2 mps 760 mmHg 91%
22:00 +21°C° 0.1 mm 2 mps 760 mmHg 91%
23:00 +21°C° 0.1 mm 2 mps 760 mmHg 91%

11 August, Tuesday

Time Temperature Precipitation Wind Pressure Humidity
00:00 +21°C° 0.1 mm 2 mps 761 mmHg 91%
01:00 +21°C° 0.1 mm 2 mps 760 mmHg 91%
02:00 +22°C° 0.1 mm 1 mps 760 mmHg 90%
03:00 +21°C° 0.1 mm 1 mps 760 mmHg 90%
04:00 +21°C° 0 mm 1 mps 760 mmHg 91%
05:00 +21°C° 0 mm 1 mps 760 mmHg 91%
06:00 +21°C° 0 mm 1 mps 760 mmHg 92%
07:00 +22°C° 0 mm 1 mps 760 mmHg 86%
08:00 +24°C° 0 mm 1 mps 760 mmHg 79%
09:00 +25°C° 0 mm 1 mps 760 mmHg 73%
10:00 +26°C° 0 mm 2 mps 760 mmHg 69%
11:00 +27°C° 0 mm 2 mps 760 mmHg 65%
12:00 +29°C° 0 mm 2 mps 760 mmHg 61%
13:00 +28°C° 0 mm 3 mps 760 mmHg 62%
14:00 +28°C° 0 mm 3 mps 760 mmHg 63%
15:00 +28°C° 0 mm 3 mps 760 mmHg 64%
16:00 +27°C° 0 mm 3 mps 760 mmHg 68%
17:00 +26°C° 0 mm 3 mps 760 mmHg 71%
18:00 +24°C° 0 mm 3 mps 760 mmHg 75%
19:00 +23°C° 0 mm 2 mps 760 mmHg 80%
20:00 +21°C° 0 mm 2 mps 761 mmHg 86%
21:00 +20°C° 0 mm 2 mps 761 mmHg 91%
22:00 +20°C° 0 mm 2 mps 761 mmHg 91%
23:00 +21°C° 0 mm 1 mps 761 mmHg 91%
Show more